contact: severine.martini@mio.osupytheas.fr, dominique.lefevre@mio.osupytheas.fr
Project:EMSO Ligure-ouest http://www.emso-fr.org/EMSO-France
Sensor Optode, line 4330 Serial 272 
DOI : "https://doi.org/10.17882/97948" 
Title:EMSO Ligure Ouest : Data BathyDock capteur Optode - deploiement "2023-04-28"
Datetime,Profondeur,Latitude,Longitude,optode_type,serial,O2_concentration,O2_saturation,Temperature,Calibrated_Phase,Temp_Compensated_Phase,phase_blue_light,phase_red_light,Amplitude_blue_light,Amplitude_red_light,thermistor_bridge
time,m,degree_north,degree_east,1,1,umol.l-1,%,degree_C,degree,degree,degree,degree,mV,mV,mV
2023-12-22T00:00:08,2420,42.8014,5.9826,4330,272,186.717,57.177,13.302,36.027,36.607,41.201,4.594,295.6,545.4,291.5
2023-12-22T00:03:07,2420,42.8014,5.9826,4330,272,186.626,57.148,13.302,36.033,36.613,41.201,4.588,295.6,545.4,291.5
2023-12-22T00:06:07,2420,42.8014,5.9826,4330,272,186.700,57.173,13.304,36.027,36.607,41.192,4.585,295.6,545.4,291.4
2023-12-22T00:09:07,2420,42.8014,5.9826,4330,272,186.655,57.158,13.303,36.031,36.611,41.198,4.587,295.5,545.3,291.5
2023-12-22T00:12:07,2420,42.8014,5.9826,4330,272,186.566,57.134,13.305,36.035,36.615,41.204,4.589,295.6,545.3,291.4
2023-12-22T00:15:07,2420,42.8014,5.9826,4330,272,186.736,57.183,13.303,36.025,36.605,41.188,4.583,295.6,545.4,291.5
2023-12-22T00:18:08,2420,42.8014,5.9826,4330,272,186.831,57.212,13.303,36.019,36.599,41.185,4.586,295.6,545.4,291.5
2023-12-22T00:21:08,2420,42.8014,5.9826,4330,272,186.583,57.138,13.305,36.035,36.615,41.198,4.583,295.6,545.4,291.4
2023-12-22T00:24:08,2420,42.8014,5.9826,4330,272,186.551,57.128,13.304,36.037,36.617,41.203,4.586,295.6,545.4,291.4
2023-12-22T00:27:08,2420,42.8014,5.9826,4330,272,186.598,57.141,13.303,36.034,36.614,41.201,4.587,295.6,545.3,291.5
2023-12-22T00:30:07,2420,42.8014,5.9826,4330,272,186.755,57.191,13.305,36.023,36.603,41.192,4.589,295.6,545.4,291.4
2023-12-22T00:33:07,2420,42.8014,5.9826,4330,272,186.530,57.121,13.304,36.038,36.618,41.204,4.585,295.5,545.3,291.4
2023-12-22T00:36:07,2420,42.8014,5.9826,4330,272,186.575,57.136,13.304,36.035,36.615,41.203,4.588,295.6,545.3,291.4
2023-12-22T00:39:08,2420,42.8014,5.9826,4330,272,186.726,57.190,13.311,36.022,36.603,41.188,4.585,295.7,545.4,291.2
2023-12-22T00:42:08,2420,42.8014,5.9826,4330,272,186.412,57.086,13.305,36.045,36.625,41.213,4.588,295.6,545.3,291.4
2023-12-22T00:45:08,2420,42.8014,5.9826,4330,272,186.624,57.154,13.307,36.031,36.611,41.200,4.589,295.6,545.3,291.3
2023-12-22T00:48:08,2420,42.8014,5.9826,4330,272,186.840,57.215,13.303,36.018,36.599,41.189,4.590,295.6,545.4,291.5
2023-12-22T00:51:07,2420,42.8014,5.9826,4330,272,186.617,57.146,13.302,36.034,36.614,41.199,4.586,295.6,545.3,291.5
2023-12-22T00:54:07,2420,42.8014,5.9826,4330,272,186.746,57.187,13.303,36.024,36.605,41.193,4.588,295.7,545.4,291.4
2023-12-22T00:57:07,2420,42.8014,5.9826,4330,272,186.638,57.155,13.304,36.031,36.611,41.202,4.590,295.6,545.3,291.4
2023-12-22T01:00:07,2420,42.8014,5.9826,4330,272,186.627,57.150,13.303,36.032,36.612,41.197,4.585,295.6,545.4,291.4
2023-12-22T01:03:07,2420,42.8014,5.9826,4330,272,186.636,57.153,13.304,36.031,36.611,41.199,4.587,295.7,545.3,291.4
2023-12-22T01:06:07,2420,42.8014,5.9826,4330,272,186.596,57.143,13.305,36.033,36.613,41.198,4.585,295.6,545.3,291.4
2023-12-22T01:09:08,2420,42.8014,5.9826,4330,272,186.566,57.133,13.305,36.036,36.616,41.197,4.581,295.6,545.3,291.4
2023-12-22T01:12:08,2420,42.8014,5.9826,4330,272,186.541,57.123,13.302,36.038,36.618,41.210,4.592,295.6,545.3,291.5
2023-12-22T01:15:08,2420,42.8014,5.9826,4330,272,186.387,57.076,13.303,36.048,36.628,41.218,4.590,295.6,545.3,291.5
2023-12-22T01:18:07,2420,42.8014,5.9826,4330,272,186.732,57.180,13.301,36.026,36.606,41.193,4.587,295.6,545.4,291.5
2023-12-22T01:21:07,2420,42.8014,5.9826,4330,272,186.680,57.174,13.309,36.026,36.606,41.195,4.589,295.6,545.3,291.2
2023-12-22T01:24:07,2420,42.8014,5.9826,4330,272,186.663,57.160,13.302,36.030,36.611,41.200,4.589,295.6,545.3,291.5
2023-12-22T01:27:08,2420,42.8014,5.9826,4330,272,186.674,57.165,13.304,36.028,36.608,41.195,4.587,295.7,545.4,291.4
2023-12-22T01:30:08,2420,42.8014,5.9826,4330,272,186.516,57.115,13.303,36.039,36.619,41.210,4.591,295.6,545.4,291.5
2023-12-22T01:33:07,2420,42.8014,5.9826,4330,272,186.742,57.184,13.302,36.025,36.605,41.191,4.586,295.6,545.3,291.5
2023-12-22T01:36:07,2420,42.8014,5.9826,4330,272,186.690,57.170,13.303,36.028,36.608,41.195,4.587,295.6,545.3,291.4
2023-12-22T01:39:07,2420,42.8014,5.9826,4330,272,186.760,57.193,13.305,36.023,36.603,41.193,4.590,295.5,545.3,291.4
2023-12-22T01:42:07,2420,42.8014,5.9826,4330,272,186.585,57.139,13.305,36.034,36.614,41.202,4.588,295.7,545.3,291.4
2023-12-22T01:45:07,2420,42.8014,5.9826,4330,272,186.606,57.145,13.304,36.033,36.614,41.201,4.587,295.6,545.3,291.4
2023-12-22T01:48:08,2420,42.8014,5.9826,4330,272,186.740,57.186,13.304,36.024,36.604,41.194,4.590,295.7,545.3,291.4
2023-12-22T01:51:08,2420,42.8014,5.9826,4330,272,186.441,57.095,13.304,36.044,36.624,41.209,4.585,295.6,545.3,291.4
2023-12-22T01:54:08,2420,42.8014,5.9826,4330,272,186.506,57.115,13.304,36.039,36.619,41.207,4.587,295.6,545.3,291.4
2023-12-22T01:57:07,2420,42.8014,5.9826,4330,272,186.663,57.162,13.304,36.029,36.609,41.198,4.588,295.5,545.3,291.4
2023-12-22T02:00:07,2420,42.8014,5.9826,4330,272,186.632,57.152,13.303,36.032,36.612,41.204,4.591,295.6,545.4,291.4
2023-12-22T02:03:08,2420,42.8014,5.9826,4330,272,186.416,57.089,13.306,36.044,36.624,41.212,4.588,295.7,545.3,291.4
2023-12-22T02:06:07,2420,42.8014,5.9826,4330,272,186.460,57.101,13.305,36.042,36.622,41.208,4.586,295.7,545.3,291.4
2023-12-22T02:09:07,2420,42.8014,5.9826,4330,272,186.419,57.094,13.309,36.043,36.623,41.209,4.585,295.6,545.4,291.3
2023-12-22T02:12:08,2420,42.8014,5.9826,4330,272,186.786,57.202,13.306,36.020,36.600,41.188,4.588,295.7,545.3,291.4
2023-12-22T02:15:08,2420,42.8014,5.9826,4330,272,186.704,57.177,13.306,36.026,36.606,41.192,4.586,295.7,545.3,291.4
2023-12-22T02:18:08,2420,42.8014,5.9826,4330,272,186.546,57.129,13.307,36.036,36.616,41.202,4.586,295.6,545.3,291.3
2023-12-22T02:21:08,2420,42.8014,5.9826,4330,272,186.461,57.105,13.308,36.041,36.621,41.205,4.583,295.6,545.3,291.3
2023-12-22T02:24:07,2420,42.8014,5.9826,4330,272,186.438,57.095,13.306,36.044,36.624,41.211,4.588,295.7,545.3,291.4
2023-12-22T02:27:07,2420,42.8014,5.9826,4330,272,186.676,57.167,13.305,36.028,36.609,41.192,4.583,295.7,545.3,291.4
2023-12-22T02:30:07,2420,42.8014,5.9826,4330,272,186.722,57.183,13.306,36.025,36.605,41.193,4.588,295.6,545.3,291.4
2023-12-22T02:33:07,2420,42.8014,5.9826,4330,272,186.718,57.181,13.306,36.025,36.605,41.194,4.589,295.7,545.4,291.4
2023-12-22T02:36:07,2420,42.8014,5.9826,4330,272,186.494,57.112,13.306,36.039,36.619,41.206,4.587,295.7,545.3,291.4
2023-12-22T02:39:07,2420,42.8014,5.9826,4330,272,186.474,57.108,13.307,36.040,36.620,41.206,4.586,295.7,545.3,291.3
2023-12-22T02:42:07,2420,42.8014,5.9826,4330,272,186.502,57.115,13.306,36.039,36.619,41.203,4.584,295.7,545.3,291.4
2023-12-22T02:45:07,2420,42.8014,5.9826,4330,272,186.493,57.112,13.306,36.040,36.620,41.207,4.587,295.7,545.3,291.4
2023-12-22T02:48:08,2420,42.8014,5.9826,4330,272,186.346,57.066,13.305,36.050,36.630,41.215,4.585,295.7,545.3,291.4
2023-12-22T02:51:08,2420,42.8014,5.9826,4330,272,186.460,57.103,13.307,36.041,36.621,41.211,4.590,295.7,545.2,291.3
2023-12-22T02:54:08,2420,42.8014,5.9826,4330,272,186.721,57.183,13.306,36.024,36.605,41.195,4.591,295.7,545.3,291.3
2023-12-22T02:57:07,2420,42.8014,5.9826,4330,272,186.530,57.121,13.304,36.038,36.618,41.202,4.584,295.7,545.3,291.4
2023-12-22T03:00:07,2420,42.8014,5.9826,4330,272,186.412,57.087,13.306,36.045,36.625,41.210,4.585,295.7,545.3,291.4
2023-12-22T03:03:07,2420,42.8014,5.9826,4330,272,186.564,57.136,13.308,36.034,36.614,41.204,4.590,295.7,545.3,291.3
2023-12-22T03:06:07,2420,42.8014,5.9826,4330,272,186.458,57.102,13.306,36.042,36.622,41.210,4.588,295.7,545.3,291.4
2023-12-22T03:09:08,2420,42.8014,5.9826,4330,272,186.196,57.022,13.307,36.058,36.638,41.226,4.587,295.7,545.3,291.3
2023-12-22T03:12:07,2420,42.8014,5.9826,4330,272,186.486,57.112,13.307,36.039,36.619,41.207,4.588,295.7,545.2,291.3
2023-12-22T03:15:07,2420,42.8014,5.9826,4330,272,186.424,57.091,13.305,36.044,36.624,41.210,4.586,295.7,545.3,291.4
2023-12-22T03:18:07,2420,42.8014,5.9826,4330,272,186.449,57.099,13.306,36.043,36.623,41.211,4.588,295.7,545.3,291.4
2023-12-22T03:21:07,2420,42.8014,5.9826,4330,272,186.533,57.125,13.306,36.037,36.617,41.207,4.590,295.7,545.3,291.4
2023-12-22T03:24:08,2420,42.8014,5.9826,4330,272,186.345,57.068,13.306,36.049,36.629,41.215,4.586,295.8,545.3,291.3
2023-12-22T03:27:08,2420,42.8014,5.9826,4330,272,186.358,57.075,13.309,36.047,36.627,41.221,4.594,295.6,545.3,291.3
2023-12-22T03:30:08,2420,42.8014,5.9826,4330,272,186.304,57.058,13.309,36.051,36.631,41.216,4.585,295.7,545.3,291.3
2023-12-22T03:33:07,2420,42.8014,5.9826,4330,272,186.395,57.088,13.310,36.044,36.624,41.214,4.590,295.7,545.3,291.2
2023-12-22T03:36:07,2420,42.8014,5.9826,4330,272,186.320,57.062,13.308,36.050,36.630,41.219,4.589,295.8,545.3,291.3
2023-12-22T03:39:07,2420,42.8014,5.9826,4330,272,186.361,57.077,13.310,36.046,36.626,41.214,4.588,295.7,545.3,291.2
2023-12-22T03:42:07,2420,42.8014,5.9826,4330,272,186.400,57.090,13.310,36.043,36.623,41.210,4.587,295.7,545.3,291.2
2023-12-22T03:45:07,2420,42.8014,5.9826,4330,272,186.674,57.174,13.310,36.025,36.605,41.198,4.592,295.7,545.3,291.2
2023-12-22T03:48:07,2420,42.8014,5.9826,4330,272,186.499,57.115,13.306,36.039,36.619,41.208,4.589,295.7,545.2,291.3
2023-12-22T03:51:08,2420,42.8014,5.9826,4330,272,186.548,57.132,13.308,36.035,36.615,41.200,4.585,295.8,545.3,291.3
2023-12-22T03:54:08,2420,42.8014,5.9826,4330,272,186.356,57.078,13.312,36.046,36.625,41.214,4.588,295.7,545.3,291.2
2023-12-22T03:57:08,2420,42.8014,5.9826,4330,272,186.610,57.149,13.306,36.031,36.611,41.204,4.592,295.7,545.3,291.3
2023-12-22T04:00:07,2420,42.8014,5.9826,4330,272,186.365,57.077,13.309,36.047,36.627,41.217,4.591,295.7,545.3,291.3
2023-12-22T04:03:07,2420,42.8014,5.9826,4330,272,186.566,57.137,13.307,36.034,36.614,41.203,4.589,295.7,545.3,291.3
2023-12-22T04:06:07,2420,42.8014,5.9826,4330,272,186.383,57.089,13.314,36.043,36.623,41.209,4.586,295.7,545.2,291.1
2023-12-22T04:09:08,2420,42.8014,5.9826,4330,272,186.453,57.104,13.309,36.041,36.621,41.207,4.585,295.8,545.3,291.3
2023-12-22T04:12:08,2420,42.8014,5.9826,4330,272,186.626,57.162,13.313,36.028,36.608,41.199,4.591,295.7,545.3,291.1
2023-12-22T04:15:08,2420,42.8014,5.9826,4330,272,186.361,57.079,13.312,36.045,36.625,41.210,4.585,295.7,545.3,291.2
2023-12-22T04:18:08,2420,42.8014,5.9826,4330,272,186.398,57.090,13.311,36.043,36.623,41.209,4.586,295.7,545.2,291.2
2023-12-22T04:21:07,2420,42.8014,5.9826,4330,272,186.504,57.132,13.319,36.033,36.613,41.200,4.588,295.7,545.3,290.9
2023-12-22T04:24:07,2420,42.8014,5.9826,4330,272,186.296,57.067,13.318,36.047,36.627,41.211,4.584,295.7,545.3,291.0
2023-12-22T04:27:07,2420,42.8014,5.9826,4330,272,186.285,57.066,13.320,36.047,36.627,41.214,4.587,295.7,545.3,290.9
2023-12-22T04:30:08,2420,42.8014,5.9826,4330,272,186.405,57.095,13.314,36.042,36.622,41.206,4.585,295.7,545.2,291.1
2023-12-22T04:33:07,2420,42.8014,5.9826,4330,272,186.245,57.047,13.314,36.052,36.632,41.218,4.586,295.8,545.3,291.1
2023-12-22T04:36:07,2420,42.8014,5.9826,4330,272,186.340,57.080,13.317,36.044,36.624,41.207,4.582,295.8,545.3,291.0
2023-12-22T04:39:08,2420,42.8014,5.9826,4330,272,186.133,57.018,13.318,36.057,36.637,41.225,4.588,295.7,545.3,291.0
2023-12-22T04:42:08,2420,42.8014,5.9826,4330,272,186.196,57.034,13.316,36.055,36.634,41.221,4.586,295.7,545.2,291.0
2023-12-22T04:45:08,2420,42.8014,5.9826,4330,272,186.519,57.129,13.313,36.035,36.615,41.201,4.586,295.7,545.2,291.1
2023-12-22T04:48:08,2420,42.8014,5.9826,4330,272,186.183,57.038,13.322,36.052,36.632,41.217,4.585,295.7,545.3,290.8
2023-12-22T04:51:07,2420,42.8014,5.9826,4330,272,186.198,57.041,13.321,36.051,36.631,41.216,4.585,295.8,545.2,290.9
2023-12-22T04:54:07,2420,42.8014,5.9826,4330,272,186.379,57.090,13.316,36.042,36.622,41.211,4.589,295.8,545.2,291.0
2023-12-22T04:57:07,2420,42.8014,5.9826,4330,272,186.355,57.074,13.309,36.047,36.627,41.217,4.590,295.7,545.3,291.3
2023-12-22T05:00:07,2420,42.8014,5.9826,4330,272,186.525,57.137,13.318,36.032,36.612,41.202,4.590,295.8,545.2,291.0
2023-12-22T05:03:07,2420,42.8014,5.9826,4330,272,186.383,57.103,13.325,36.037,36.617,41.207,4.590,295.7,545.2,290.7
2023-12-22T05:06:07,2420,42.8014,5.9826,4330,272,186.295,57.069,13.320,36.046,36.626,41.214,4.589,295.7,545.2,290.9
2023-12-22T05:09:07,2420,42.8014,5.9826,4330,272,186.354,57.090,13.321,36.041,36.621,41.214,4.592,295.8,545.2,290.9
2023-12-22T05:12:08,2420,42.8014,5.9826,4330,272,186.353,57.099,13.329,36.037,36.617,41.204,4.586,295.7,545.2,290.6
2023-12-22T05:15:08,2420,42.8014,5.9826,4330,272,186.251,57.052,13.317,36.050,36.630,41.216,4.586,295.7,545.2,291.0
2023-12-22T05:18:08,2420,42.8014,5.9826,4330,272,186.321,57.073,13.316,36.046,36.626,41.214,4.588,295.7,545.2,291.0
2023-12-22T05:21:08,2420,42.8014,5.9826,4330,272,186.080,57.009,13.324,36.058,36.638,41.225,4.587,295.7,545.2,290.8
2023-12-22T05:24:08,2420,42.8014,5.9826,4330,272,186.199,57.050,13.327,36.048,36.628,41.216,4.588,295.7,545.2,290.7
2023-12-22T05:27:07,2420,42.8014,5.9826,4330,272,186.268,57.064,13.322,36.046,36.626,41.217,4.590,295.7,545.1,290.8
2023-12-22T05:30:07,2420,42.8014,5.9826,4330,272,186.453,57.117,13.319,36.036,36.616,41.206,4.590,295.8,545.2,290.9
2023-12-22T05:33:07,2420,42.8014,5.9826,4330,272,186.342,57.082,13.319,36.043,36.623,41.215,4.592,295.7,545.3,290.9
2023-12-22T05:36:07,2420,42.8014,5.9826,4330,272,186.394,57.110,13.328,36.036,36.616,41.204,4.588,295.8,545.2,290.6
2023-12-22T05:39:07,2420,42.8014,5.9826,4330,272,186.183,57.045,13.328,36.050,36.630,41.221,4.592,295.8,545.2,290.7
2023-12-22T05:42:07,2420,42.8014,5.9826,4330,272,186.453,57.128,13.328,36.032,36.612,41.204,4.592,295.7,545.2,290.6
2023-12-22T05:45:07,2420,42.8014,5.9826,4330,272,186.359,57.091,13.322,36.041,36.621,41.212,4.591,295.7,545.2,290.8
2023-12-22T05:48:07,2420,42.8014,5.9826,4330,272,186.400,57.098,13.317,36.040,36.620,41.207,4.587,295.7,545.2,291.0
2023-12-22T05:51:08,2420,42.8014,5.9826,4330,272,186.274,57.063,13.320,36.047,36.627,41.214,4.587,295.7,545.2,290.9
2023-12-22T05:54:08,2420,42.8014,5.9826,4330,272,186.368,57.091,13.319,36.042,36.622,41.207,4.586,295.7,545.1,290.9
2023-12-22T05:57:08,2420,42.8014,5.9826,4330,272,186.434,57.119,13.326,36.034,36.614,41.205,4.592,295.7,545.1,290.7
2023-12-22T06:00:07,2420,42.8014,5.9826,4330,272,186.087,57.009,13.323,36.058,36.638,41.226,4.588,295.7,545.1,290.8
2023-12-22T06:03:07,2420,42.8014,5.9826,4330,272,186.326,57.092,13.330,36.038,36.618,41.203,4.584,295.7,545.1,290.6
2023-12-22T06:06:07,2420,42.8014,5.9826,4330,272,186.272,57.082,13.335,36.040,36.620,41.201,4.581,295.7,545.1,290.4
2023-12-22T06:09:08,2420,42.8014,5.9826,4330,272,186.221,57.073,13.340,36.041,36.621,41.211,4.590,295.7,545.1,290.2
2023-12-22T06:12:07,2420,42.8014,5.9826,4330,272,186.073,57.025,13.339,36.051,36.631,41.220,4.589,295.8,545.1,290.3
2023-12-22T06:15:07,2420,42.8014,5.9826,4330,272,186.114,57.033,13.335,36.050,36.630,41.219,4.589,295.8,545.2,290.4
2023-12-22T06:18:08,2420,42.8014,5.9826,4330,272,186.085,57.021,13.333,36.053,36.633,41.219,4.585,295.7,545.1,290.5
2023-12-22T06:21:08,2420,42.8014,5.9826,4330,272,186.013,56.985,13.321,36.063,36.643,41.230,4.587,295.8,545.2,290.9
2023-12-22T06:24:08,2420,42.8014,5.9826,4330,272,186.134,57.041,13.337,36.048,36.628,41.218,4.591,295.7,545.1,290.4
2023-12-22T06:27:08,2420,42.8014,5.9826,4330,272,185.836,56.954,13.339,36.067,36.646,41.235,4.588,295.9,545.1,290.3
2023-12-22T06:30:07,2420,42.8014,5.9826,4330,272,186.012,57.000,13.333,36.058,36.638,41.229,4.591,295.8,545.1,290.5
2023-12-22T06:33:07,2420,42.8014,5.9826,4330,272,186.179,57.061,13.341,36.043,36.623,41.213,4.590,295.7,545.1,290.2
2023-12-22T06:36:07,2420,42.8014,5.9826,4330,272,186.264,57.081,13.336,36.040,36.620,41.210,4.589,295.7,545.0,290.4
2023-12-22T06:39:07,2420,42.8014,5.9826,4330,272,186.212,57.056,13.330,36.047,36.627,41.220,4.594,295.8,545.1,290.6
2023-12-22T06:42:08,2420,42.8014,5.9826,4330,272,186.404,57.107,13.323,36.037,36.617,41.205,4.587,295.9,545.2,290.8
2023-12-22T06:45:08,2420,42.8014,5.9826,4330,272,186.047,56.998,13.323,36.060,36.640,41.224,4.584,295.8,545.2,290.8
2023-12-22T06:48:08,2420,42.8014,5.9826,4330,272,186.138,57.021,13.319,36.057,36.636,41.224,4.587,295.8,545.2,290.9
2023-12-22T06:51:08,2420,42.8014,5.9826,4330,272,186.063,57.001,13.322,36.060,36.640,41.230,4.590,295.8,545.2,290.8
2023-12-22T06:54:07,2420,42.8014,5.9826,4330,272,186.164,57.028,13.319,36.054,36.634,41.223,4.588,295.8,545.2,290.9
2023-12-22T06:57:07,2420,42.8014,5.9826,4330,272,186.142,57.024,13.320,36.055,36.635,41.219,4.584,295.9,545.3,290.9
2023-12-22T07:00:07,2420,42.8014,5.9826,4330,272,186.284,57.067,13.320,36.047,36.627,41.215,4.589,295.8,545.2,290.9
2023-12-22T07:03:07,2420,42.8014,5.9826,4330,272,186.187,57.038,13.321,36.052,36.632,41.220,4.588,295.8,545.2,290.9
2023-12-22T07:06:07,2420,42.8014,5.9826,4330,272,186.237,57.057,13.324,36.047,36.627,41.214,4.586,295.8,545.1,290.8
2023-12-22T07:09:08,2420,42.8014,5.9826,4330,272,186.223,57.049,13.321,36.049,36.629,41.214,4.585,295.8,545.2,290.9
2023-12-22T07:12:08,2420,42.8014,5.9826,4330,272,185.957,56.973,13.325,36.066,36.645,41.230,4.585,295.8,545.2,290.7
2023-12-22T07:15:07,2420,42.8014,5.9826,4330,272,186.325,57.084,13.324,36.041,36.622,41.212,4.590,295.8,545.1,290.8
2023-12-22T07:18:07,2420,42.8014,5.9826,4330,272,185.935,56.960,13.320,36.069,36.649,41.238,4.589,295.8,545.2,290.9
2023-12-22T07:21:07,2420,42.8014,5.9826,4330,272,186.293,57.080,13.329,36.041,36.621,41.210,4.588,295.8,545.2,290.6
2023-12-22T07:24:07,2420,42.8014,5.9826,4330,272,186.287,57.071,13.323,36.045,36.625,41.219,4.594,295.8,545.1,290.8
2023-12-22T07:27:07,2420,42.8014,5.9826,4330,272,186.209,57.047,13.323,36.050,36.630,41.220,4.590,295.8,545.1,290.8
2023-12-22T07:30:07,2420,42.8014,5.9826,4330,272,186.408,57.105,13.320,36.038,36.618,41.202,4.584,295.8,545.1,290.9
2023-12-22T07:33:07,2420,42.8014,5.9826,4330,272,186.192,57.039,13.320,36.053,36.633,41.224,4.591,295.8,545.2,290.9
2023-12-22T07:36:07,2420,42.8014,5.9826,4330,272,186.168,57.025,13.315,36.056,36.636,41.221,4.584,295.8,545.2,291.1
2023-12-22T07:39:07,2420,42.8014,5.9826,4330,272,186.474,57.118,13.315,36.037,36.617,41.205,4.588,295.8,545.1,291.1
2023-12-22T07:42:08,2420,42.8014,5.9826,4330,272,186.377,57.088,13.315,36.043,36.623,41.212,4.589,295.8,545.2,291.1
2023-12-22T07:45:08,2420,42.8014,5.9826,4330,272,186.251,57.050,13.316,36.051,36.631,41.218,4.587,295.7,545.2,291.0
2023-12-22T07:48:08,2420,42.8014,5.9826,4330,272,186.287,57.064,13.318,36.048,36.628,41.214,4.586,295.7,545.1,291.0
2023-12-22T07:51:08,2420,42.8014,5.9826,4330,272,186.111,57.011,13.318,36.058,36.638,41.223,4.585,295.7,545.2,291.0
2023-12-22T07:54:07,2420,42.8014,5.9826,4330,272,186.285,57.068,13.321,36.045,36.625,41.213,4.587,295.8,545.2,290.9
2023-12-22T07:57:07,2420,42.8014,5.9826,4330,272,186.208,57.045,13.321,36.051,36.631,41.215,4.584,295.7,545.2,290.9
2023-12-22T08:00:08,2420,42.8014,5.9826,4330,272,186.254,57.055,13.318,36.049,36.629,41.220,4.591,295.8,545.2,290.9
2023-12-22T08:03:08,2420,42.8014,5.9826,4330,272,186.341,57.078,13.316,36.045,36.625,41.212,4.587,295.7,545.1,291.0
2023-12-22T08:06:08,2420,42.8014,5.9826,4330,272,186.430,57.108,13.317,36.038,36.618,41.210,4.591,295.8,545.2,291.0
2023-12-22T08:09:08,2420,42.8014,5.9826,4330,272,186.400,57.104,13.322,36.038,36.618,41.209,4.590,295.7,545.2,290.8
2023-12-22T08:12:07,2420,42.8014,5.9826,4330,272,186.389,57.095,13.317,36.041,36.621,41.208,4.588,295.7,545.2,291.0
2023-12-22T08:15:07,2420,42.8014,5.9826,4330,272,186.459,57.113,13.314,36.038,36.618,41.208,4.590,295.8,545.2,291.1
2023-12-22T08:18:07,2420,42.8014,5.9826,4330,272,186.444,57.112,13.318,36.037,36.617,41.212,4.595,295.8,545.2,291.0
2023-12-22T08:21:08,2420,42.8014,5.9826,4330,272,186.556,57.141,13.313,36.032,36.612,41.197,4.584,295.8,545.2,291.1
2023-12-22T08:24:08,2420,42.8014,5.9826,4330,272,186.389,57.088,13.311,36.044,36.624,41.211,4.588,295.8,545.2,291.2
2023-12-22T08:27:08,2420,42.8014,5.9826,4330,272,186.307,57.062,13.311,36.049,36.629,41.215,4.586,295.8,545.2,291.2
2023-12-22T08:30:08,2420,42.8014,5.9826,4330,272,186.390,57.091,13.314,36.042,36.622,41.212,4.590,295.8,545.2,291.1
2023-12-22T08:33:07,2420,42.8014,5.9826,4330,272,186.366,57.086,13.316,36.044,36.624,41.210,4.586,295.7,545.2,291.0
2023-12-22T08:36:07,2420,42.8014,5.9826,4330,272,186.261,57.052,13.314,36.050,36.630,41.216,4.586,295.7,545.2,291.1
2023-12-22T08:39:07,2420,42.8014,5.9826,4330,272,186.309,57.067,13.315,36.048,36.628,41.218,4.590,295.7,545.3,291.1
2023-12-22T08:42:07,2420,42.8014,5.9826,4330,272,186.561,57.139,13.311,36.033,36.613,41.203,4.590,295.8,545.2,291.2
2023-12-22T08:45:07,2420,42.8014,5.9826,4330,272,186.383,57.092,13.316,36.042,36.622,41.212,4.590,295.7,545.2,291.0
2023-12-22T08:48:08,2420,42.8014,5.9826,4330,272,186.262,57.048,13.311,36.052,36.632,41.213,4.581,295.8,545.2,291.2
2023-12-22T08:51:08,2420,42.8014,5.9826,4330,272,186.460,57.114,13.315,36.037,36.617,41.207,4.590,295.7,545.2,291.1
2023-12-22T08:54:08,2420,42.8014,5.9826,4330,272,186.406,57.095,13.313,36.042,36.622,41.206,4.584,295.7,545.3,291.1
2023-12-22T08:57:08,2420,42.8014,5.9826,4330,272,186.339,57.076,13.314,36.046,36.626,41.214,4.588,295.8,545.2,291.1
2023-12-22T09:00:07,2420,42.8014,5.9826,4330,272,186.376,57.083,13.311,36.045,36.625,41.216,4.591,295.7,545.2,291.2
2023-12-22T09:03:07,2420,42.8014,5.9826,4330,272,186.350,57.074,13.310,36.047,36.627,41.212,4.585,295.7,545.2,291.2
2023-12-22T09:06:07,2420,42.8014,5.9826,4330,272,186.436,57.103,13.313,36.040,36.620,41.212,4.591,295.7,545.2,291.1
2023-12-22T09:09:07,2420,42.8014,5.9826,4330,272,186.358,57.081,13.314,36.045,36.625,41.209,4.584,295.8,545.3,291.1
2023-12-22T09:12:08,2420,42.8014,5.9826,4330,272,186.472,57.115,13.313,36.038,36.618,41.206,4.588,295.8,545.2,291.1
2023-12-22T09:15:07,2420,42.8014,5.9826,4330,272,186.438,57.102,13.311,36.041,36.621,41.205,4.583,295.7,545.1,291.2
2023-12-22T09:18:07,2420,42.8014,5.9826,4330,272,186.525,57.129,13.311,36.035,36.615,41.208,4.592,295.8,545.2,291.2
2023-12-22T09:21:08,2420,42.8014,5.9826,4330,272,186.596,57.151,13.311,36.030,36.610,41.202,4.592,295.7,545.3,291.2
2023-12-22T09:24:08,2420,42.8014,5.9826,4330,272,186.419,57.098,13.312,36.041,36.621,41.211,4.590,295.6,545.3,291.2
2023-12-22T09:27:08,2420,42.8014,5.9826,4330,272,186.434,57.100,13.310,36.041,36.621,41.210,4.588,295.7,545.3,291.2
2023-12-22T09:30:08,2420,42.8014,5.9826,4330,272,186.326,57.069,13.312,36.048,36.628,41.216,4.588,295.8,545.3,291.2
2023-12-22T09:33:07,2420,42.8014,5.9826,4330,272,186.455,57.106,13.310,36.040,36.620,41.207,4.587,295.8,545.2,291.2
2023-12-22T09:36:07,2420,42.8014,5.9826,4330,272,186.180,57.025,13.313,36.057,36.637,41.219,4.582,295.7,545.3,291.1
2023-12-22T09:39:07,2420,42.8014,5.9826,4330,272,186.404,57.092,13.311,36.043,36.623,41.213,4.590,295.6,545.3,291.2
2023-12-22T09:42:07,2420,42.8014,5.9826,4330,272,186.618,57.153,13.308,36.031,36.611,41.197,4.586,295.8,545.3,291.3
2023-12-22T09:45:07,2420,42.8014,5.9826,4330,272,186.324,57.066,13.310,36.049,36.629,41.214,4.585,295.8,545.2,291.2
2023-12-22T09:48:07,2420,42.8014,5.9826,4330,272,186.212,57.029,13.308,36.057,36.637,41.224,4.587,295.8,545.2,291.3
2023-12-22T09:51:08,2420,42.8014,5.9826,4330,272,186.355,57.073,13.308,36.048,36.628,41.215,4.587,295.8,545.2,291.3
2023-12-22T09:54:08,2420,42.8014,5.9826,4330,272,186.312,57.066,13.313,36.048,36.628,41.217,4.589,295.7,545.3,291.1
2023-12-22T09:57:07,2420,42.8014,5.9826,4330,272,186.308,57.059,13.309,36.050,36.630,41.216,4.586,295.8,545.3,291.3
2023-12-22T10:00:07,2420,42.8014,5.9826,4330,272,186.407,57.092,13.311,36.043,36.623,41.213,4.590,295.7,545.2,291.2